{"data":{"norad_id":64860,"intl_designator":"2025-152U","name":"STARLINK-34570","alt_names":[],"object_type":"PAYLOAD","status":"ACTIVE","operator":null,"country":"US","launch_date":"2025-07-19","launch_site_code":"AFWTR","launch_vehicle":null,"mission":null,"orbit_class":"UNKNOWN","rcs_meters":null,"size_class":null,"mass_kg":null,"dimensions":null,"purposes":["comms"],"wikipedia_slug":null,"has_3d_model":false,"image_url":null,"decayed_at":null,"tle_current":{"epoch":"2026-05-25T02:44:23.292672Z","epoch_age_seconds":61258,"freshness":"FRESH","line1":"1 64860U 25152U   26145.11415848  .00001563  00000+0  11235-3 0  9998","line2":"2 64860  97.4474   0.4148 0002653  89.2180 270.9351 15.05657661 46911","mean_motion":15.05657661,"eccentricity":0.0002653,"inclination_deg":97.4474,"raan_deg":0.4148,"arg_perigee_deg":89.218,"mean_anomaly_deg":270.9351,"bstar":0.00011235,"rev_number":4691,"period_min":95.639270286953,"perigee_km":547.64975595986,"apogee_km":551.32555360169,"semimajor_km":6927.6246547808,"source":"CELESTRAK","updated_at":"2026-05-25T13:38:20.616414Z"}}}